Date_and_time,latitude,longitude,wind_speed,RelWindDirFrom,WindDirFrom,air_pressure,air_temperature,relative_humidity,Temp,platform_speed_wrt_ground,air_pressure_at_mean_sea_level,platform_orientation
2019-11-15 00:00,50.6304533333333,-96.98077,5.3,7.3,335,992.89,-5.3,71,1.09,0.0,1021.34,90.0
2019-11-15 00:10,50.630455,-96.98077,4.9,7.6,329,993.07,-5.5,72,1.11,0.0,1021.54,90.0
2019-11-15 00:20,50.630455,-96.9807716666667,5.5,8.3,328,993.18,-5.7,72,1.12,0.0,1021.67,90.0
2019-11-15 00:30,50.630455,-96.9807716666667,4.7,7.0,331,993.33,-5.8,72,1.13,0.0,1021.85,90.0
2019-11-15 00:40,50.630455,-96.9807716666667,5.8,7.9,337,993.34,-6.0,72,1.16,0.0,1021.89,90.0
2019-11-15 00:50,50.630455,-96.9807716666667,6.2,8.2,336,993.50,-6.0,72,1.17,0.0,1022.07,90.0
2019-11-15 01:00,50.630455,-96.9807716666667,5.3,7.7,325,993.74,-6.2,73,1.18,0.0,1022.34,270.0
2019-11-15 01:10,50.630455,-96.9807716666667,5.7,8.1,322,993.91,-6.4,72,1.18,0.0,1022.52,270.0
2019-11-15 01:20,50.630455,-96.98077,5.4,7.7,318,993.95,-6.6,73,1.19,0.0,1022.58,270.0
2019-11-15 01:30,50.630455,-96.980775,4.7,7.2,313,994.11,-6.7,73,1.19,0.0,1022.76,270.0
2019-11-15 01:40,50.6304533333333,-96.9807683333333,5.7,8.3,315,994.18,-6.8,70,1.19,0.0,1022.85,270.0
2019-11-15 01:50,50.63045,-96.9807566666667,6.7,10.2,327,994.26,-6.9,66,1.19,0.0,1022.95,270.0
2019-11-15 02:00,50.630445,-96.9807633333333,5.6,8.0,332,994.24,-6.9,65,1.19,0.0,1022.95,360.0
2019-11-15 02:10,50.6304433333333,-96.980765,5.2,7.6,320,994.29,-7.1,64,1.18,0.0,1023.02,360.0
2019-11-15 02:20,50.630445,-96.980765,4.8,6.9,317,994.37,-7.2,64,1.18,0.0,1023.12,360.0
2019-11-15 02:30,50.630445,-96.9807633333333,3.7,5.0,295,994.55,-7.4,65,1.17,0.0,1023.32,360.0
2019-11-15 02:40,50.630445,-96.9807666666667,3.6,5.0,288,994.65,-7.5,64,1.18,0.0,1023.43,360.0
2019-11-15 02:50,50.6304466666667,-96.9807683333333,3.1,3.9,266,994.70,-7.8,66,1.18,0.0,1023.50,360.0
2019-11-15 03:00,50.6304466666667,-96.98077,3.4,4.5,272,994.73,-8.1,67,1.17,0.0,1023.56,142.0
2019-11-15 03:10,50.630445,-96.9807733333333,3.7,5.3,292,994.76,-8.1,68,1.16,0.0,1023.61,142.0
2019-11-15 03:20,50.630445,-96.9807683333333,3.9,5.4,289,994.81,-8.2,67,1.16,0.0,1023.67,142.0
2019-11-15 03:30,50.6304266666667,-96.9807566666667,3.9,5.7,279,994.97,-8.4,68,1.15,0.0,1023.85,142.0
2019-11-15 03:40,50.6304383333333,-96.98077,4.2,5.8,266,995.13,-8.6,69,1.15,0.0,1024.03,142.0
2019-11-15 03:50,50.6304416666667,-96.980765,4.6,6.6,261,995.36,-8.8,68,1.15,0.0,1024.28,142.0
2019-11-15 04:00,50.630455,-96.9807966666667,5.0,7.3,271,995.67,-8.9,68,1.15,0.0,1024.61,270.0
2019-11-15 04:10,50.6304466666667,-96.98076,5.0,6.5,276,995.67,-8.9,67,1.16,0.0,1024.62,270.0
2019-11-15 04:20,50.6304466666667,-96.9807533333333,4.3,6.1,275,995.72,-9.0,68,1.15,0.0,1024.69,270.0
2019-11-15 04:30,50.63045,-96.9807566666667,4.6,7.5,286,995.69,-9.0,69,1.15,0.0,1024.66,270.0
2019-11-15 04:40,50.63045,-96.98076,4.9,6.5,290,995.79,-8.8,68,1.14,0.0,1024.77,270.0
2019-11-15 04:50,50.6304516666667,-96.9807583333333,4.5,6.4,293,995.79,-8.6,67,1.15,0.0,1024.77,270.0
2019-11-15 05:00,50.63045,-96.98076,4.3,6.7,285,995.87,-8.6,67,1.15,0.0,1024.86,360.0
2019-11-15 05:10,50.6304516666667,-96.9807616666667,4.9,7.2,284,995.89,-8.6,67,1.15,0.0,1024.88,360.0
2019-11-15 05:20,50.6304333333333,-96.9807783333333,5.2,7.6,290,995.87,-8.5,67,1.16,0.0,1024.87,360.0
2019-11-15 05:30,50.63045,-96.98076,5.3,7.5,295,996.03,-8.5,66,1.16,0.0,1025.04,360.0
2019-11-15 05:40,50.6304516666667,-96.98074,5.5,7.5,306,996.13,-8.5,66,1.15,0.0,1025.15,360.0
2019-11-15 05:50,50.6304516666667,-96.9807566666667,6.0,8.8,321,996.12,-8.5,66,1.14,0.0,1025.15,360.0
2019-11-15 06:00,50.6304983333333,-96.9808116666667,7.0,9.1,327,996.26,-8.4,66,1.13,0.0,1025.29,328.8
2019-11-15 06:10,50.6304433333333,-96.98077,7.4,10.4,327,996.51,-8.4,67,1.11,0.0,1025.55,328.8
2019-11-15 06:20,50.6304416666667,-96.9807633333333,7.1,10.2,329,996.76,-8.5,68,1.10,0.0,1025.81,328.8
2019-11-15 06:30,50.63044,-96.98076,7.5,10.4,331,996.92,-8.6,69,1.09,0.0,1025.97,328.8
2019-11-15 06:40,50.63044,-96.980795,6.5,9.5,329,997.16,-8.8,70,1.09,0.0,1026.22,328.8
2019-11-15 06:50,50.6304466666667,-96.980765,5.9,8.0,326,997.23,-8.8,72,1.09,0.0,1026.30,328.8
2019-11-15 07:00,50.6304483333333,-96.9807666666667,6.3,9.7,332,997.27,-8.8,74,1.09,0.0,1026.34,103.7
2019-11-15 07:10,50.6304516666667,-96.9807683333333,6.4,8.3,332,997.34,-8.9,76,1.09,0.0,1026.41,103.7
2019-11-15 07:20,50.6304533333333,-96.98077,7.8,15.3,353,997.52,-8.8,78,1.09,0.0,1026.58,103.7
2019-11-15 07:30,50.630455,-96.98077,12.7,16.8,3,997.62,-8.3,78,1.09,0.0,1026.67,103.7
2019-11-15 07:40,50.630455,-96.98077,13.1,16.3,2,997.60,-8.6,77,1.09,0.0,1026.66,103.7
2019-11-15 07:50,50.630455,-96.98077,12.6,17.2,7,997.61,-8.7,78,1.09,0.0,1026.67,103.7
2019-11-15 08:00,50.6304566666667,-96.9807716666667,12.3,16.5,1,997.60,-8.9,78,1.09,0.0,1026.66,270.0
2019-11-15 08:10,50.6304566666667,-96.9807733333333,12.8,16.5,4,997.59,-9.0,75,1.10,0.0,1026.68,270.0
2019-11-15 08:20,50.6304566666667,-96.9807683333333,12.6,16.6,12,997.71,-9.2,73,1.10,0.0,1026.81,270.0
2019-11-15 08:30,50.6304466666667,-96.9807466666667,12.6,16.9,14,997.82,-9.2,74,1.11,0.0,1026.93,270.0
2019-11-15 08:40,50.63045,-96.980755,13.3,16.1,23,998.05,-9.4,73,1.11,0.0,1027.18,270.0
2019-11-15 08:50,50.6304583333333,-96.980785,12.7,16.4,19,998.04,-9.5,72,1.11,0.0,1027.18,270.0
2019-11-15 09:00,50.6304583333333,-96.9807766666667,12.1,14.7,22,998.24,-9.6,71,1.11,0.0,1027.39,145.6
2019-11-15 09:10,50.63046,-96.9807816666667,11.5,16.3,22,998.30,-9.7,71,1.11,0.0,1027.45,145.6
2019-11-15 09:20,50.63046,-96.9807816666667,13.9,18.1,41,998.31,-9.9,72,1.11,0.0,1027.45,145.6
2019-11-15 09:30,50.63046,-96.98078,14.7,17.9,40,998.32,-10.2,68,1.12,0.0,1027.49,145.6
2019-11-15 09:40,50.63046,-96.98078,13.9,17.8,30,998.50,-10.4,65,1.12,0.0,1027.70,145.6
2019-11-15 09:50,50.63046,-96.98078,13.2,15.8,30,998.51,-10.4,64,1.12,0.0,1027.71,145.6
2019-11-15 10:00,50.630485,-96.9807866666667,12.1,14.7,32,998.75,-10.4,65,1.13,0.0,1027.98,335.6
2019-11-15 10:10,50.6304583333333,-96.9807666666667,11.8,14.9,31,998.89,-10.5,65,1.14,0.0,1028.13,335.6
2019-11-15 10:20,50.6304566666667,-96.9807616666667,10.2,13.3,35,998.94,-10.5,64,1.15,0.0,1028.18,335.6
2019-11-15 10:30,50.6304566666667,-96.9807633333333,8.5,11.3,38,999.10,-10.6,63,1.15,0.0,1028.36,335.6
2019-11-15 10:40,50.6304516666667,-96.98076,8.3,10.5,41,999.25,-10.5,63,1.15,0.0,1028.52,335.6
2019-11-15 10:50,50.630455,-96.980765,8.5,11.7,48,999.38,-10.5,63,1.14,0.0,1028.66,335.6
2019-11-15 11:00,50.6304583333333,-96.9807733333333,8.4,11.1,52,999.55,-10.5,63,1.14,0.0,1028.84,360.0
2019-11-15 11:10,50.6304616666667,-96.9807716666667,9.4,12.0,53,999.60,-10.6,62,1.13,0.0,1028.90,360.0
2019-11-15 11:20,50.63046,-96.9807716666667,8.8,12.5,49,999.85,-10.6,61,1.13,0.0,1029.18,360.0
2019-11-15 11:30,50.6304616666667,-96.9807716666667,8.3,11.7,60,999.97,-10.6,61,1.13,0.0,1029.31,360.0
2019-11-15 11:40,50.6304633333333,-96.9807716666667,7.6,10.6,55,1000.03,-10.6,60,1.12,0.0,1029.38,360.0
2019-11-15 11:50,50.6304433333333,-96.9807566666667,7.7,10.4,68,1000.02,-10.5,61,1.12,0.0,1029.36,360.0
2019-11-15 12:00,50.6304633333333,-96.980775,6.5,9.6,71,1000.03,-10.5,61,1.13,0.0,1029.37,360.0
2019-11-15 12:10,50.6304616666667,-96.9807866666667,8.1,11.8,65,1000.07,-10.4,62,1.13,0.0,1029.41,360.0
2019-11-15 12:20,50.6304566666667,-96.98077,8.5,10.7,63,1000.08,-10.4,61,1.12,0.0,1029.43,360.0
2019-11-15 12:30,50.630455,-96.98077,9.2,12.1,64,1000.15,-10.4,62,1.12,0.0,1029.50,360.0
2019-11-15 12:40,50.630455,-96.9807683333333,9.0,11.8,63,1000.34,-10.4,61,1.12,0.0,1029.70,360.0
2019-11-15 12:50,50.630455,-96.9807683333333,9.1,11.4,70,1000.48,-10.3,62,1.12,0.0,1029.83,360.0
2019-11-15 13:00,50.6304533333333,-96.9807683333333,9.0,12.4,75,1000.59,-10.3,61,1.11,0.0,1029.94,156.3
2019-11-15 13:10,50.630445,-96.9807766666667,7.8,10.8,71,1000.67,-10.2,62,1.09,0.0,1030.03,156.3
2019-11-15 13:20,50.630445,-96.9807783333333,8.3,11.8,67,1000.69,-10.1,62,1.09,0.0,1030.04,156.3
2019-11-15 13:30,50.6304366666667,-96.98078,9.3,12.8,72,1000.70,-10.1,63,1.09,0.0,1030.05,156.3
2019-11-15 13:40,50.630445,-96.98077,9.2,11.9,81,1000.60,-10.1,62,1.09,0.0,1029.94,156.3
2019-11-15 13:50,50.630445,-96.9807616666667,8.7,11.4,80,1000.65,-10.1,62,1.09,0.0,1029.99,156.3
2019-11-15 14:00,50.630445,-96.9807616666667,8.9,11.9,83,1000.78,-10.0,63,1.10,0.0,1030.12,176.8
2019-11-15 14:10,50.630445,-96.98076,9.2,11.4,81,1000.88,-10.0,62,1.10,0.0,1030.22,176.8
2019-11-15 14:20,50.6304466666667,-96.9807616666667,8.9,12.8,83,1000.89,-10.0,62,1.10,0.0,1030.23,176.8
2019-11-15 14:30,50.6304466666667,-96.9807616666667,7.9,11.6,96,1000.89,-10.0,62,1.09,0.0,1030.23,176.8
2019-11-15 14:40,50.6304483333333,-96.9807633333333,8.7,11.6,95,1000.94,-9.9,63,1.07,0.0,1030.27,176.8
2019-11-15 14:50,50.6304483333333,-96.9807633333333,9.1,12.0,101,1000.93,-9.9,63,1.07,0.0,1030.25,176.8
2019-11-15 15:00,50.6304216666667,-96.98076,8.4,11.0,95,1000.98,-9.9,62,1.05,0.0,1030.31,360.0
2019-11-15 15:10,50.6304466666667,-96.980775,8.3,11.0,96,1001.00,-9.8,62,1.06,0.0,1030.31,360.0
2019-11-15 15:20,50.6304466666667,-96.98077,9.0,12.9,103,1001.09,-9.7,63,1.05,0.0,1030.39,360.0
2019-11-15 15:30,50.63045,-96.9807683333333,9.3,11.9,103,1001.12,-9.5,64,1.05,0.0,1030.42,360.0
2019-11-15 15:40,50.6304483333333,-96.980765,9.7,12.4,112,1001.15,-9.6,63,1.06,0.0,1030.45,360.0
2019-11-15 15:50,50.6304483333333,-96.9807633333333,10.0,12.7,114,1001.15,-9.6,64,1.06,0.0,1030.45,360.0
2019-11-15 16:00,50.6304483333333,-96.9807633333333,10.4,12.4,118,1001.12,-9.6,64,1.06,0.0,1030.42,142.0
2019-11-15 16:10,50.6304466666667,-96.9807633333333,9.6,11.9,118,1001.16,-9.6,64,1.05,0.0,1030.47,142.0
2019-11-15 16:20,50.6304466666667,-96.9807633333333,10.1,13.1,115,1001.11,-9.6,64,1.05,0.0,1030.41,142.0
2019-11-15 16:30,50.630455,-96.98078,10.2,13.7,117,1001.05,-9.6,64,1.04,0.0,1030.35,142.0
2019-11-15 16:40,50.6304433333333,-96.9807566666667,10.1,12.9,119,1001.09,-9.4,64,1.03,0.0,1030.37,142.0
2019-11-15 16:50,50.6304466666667,-96.98076,10.0,12.8,122,1001.28,-9.5,64,1.03,0.0,1030.58,142.0
2019-11-15 17:00,50.63045,-96.9807733333333,10.4,13.2,113,1001.34,-9.4,63,1.02,0.0,1030.63,347.4
2019-11-15 17:10,50.6304483333333,-96.9807666666667,10.1,12.8,117,1001.29,-9.4,63,1.02,0.0,1030.57,347.4
2019-11-15 17:20,50.63045,-96.9807683333333,10.3,13.4,114,1001.19,-9.2,65,1.02,0.0,1030.45,347.4
2019-11-15 17:30,50.63045,-96.9807683333333,11.1,14.9,119,1001.13,-9.2,65,1.01,0.0,1030.39,347.4
2019-11-15 17:40,50.63045,-96.9807666666667,10.9,14.2,130,1001.08,-9.3,64,1.01,0.0,1030.34,347.4
2019-11-15 17:50,50.6304483333333,-96.980765,11.6,14.5,139,1001.02,-9.7,63,1.01,0.0,1030.30,347.4
2019-11-15 18:00,50.6304483333333,-96.9807666666667,11.0,15.2,132,1000.97,-9.1,64,1.01,0.0,1030.22,346.7
2019-11-15 18:10,50.6304483333333,-96.9807666666667,10.4,13.1,130,1000.82,-9.0,63,1.01,0.0,1030.06,346.7
2019-11-15 18:20,50.6304483333333,-96.9807666666667,10.3,12.9,120,1000.69,-8.7,64,1.02,0.0,1029.90,346.7
2019-11-15 18:30,50.6304483333333,-96.9807683333333,10.7,13.4,127,1000.50,-8.8,64,1.02,0.0,1029.71,346.7
2019-11-15 18:40,50.6304483333333,-96.9807683333333,10.2,13.4,126,1000.31,-8.6,64,1.01,0.0,1029.50,346.7
2019-11-15 18:50,50.6304483333333,-96.9807683333333,10.7,14.2,126,1000.23,-8.4,64,1.01,0.0,1029.41,346.7
2019-11-15 19:00,50.6304466666667,-96.980765,10.3,13.2,124,1000.14,-8.3,63,1.01,0.0,1029.31,0.0
2019-11-15 19:10,50.6304483333333,-96.9807633333333,9.7,13.7,128,1000.08,-8.3,62,1.01,0.0,1029.24,0.0
2019-11-15 19:20,50.6304483333333,-96.9807633333333,10.2,12.7,122,999.95,-8.1,61,1.01,0.0,1029.09,0.0
2019-11-15 19:30,50.6304466666667,-96.9807616666667,8.9,12.3,129,1000.04,-8.1,61,1.00,0.0,1029.18,0.0
2019-11-15 19:40,50.6304516666667,-96.9807983333333,9.4,12.1,120,999.78,-7.5,60,1.00,0.0,1028.91,0.0
2019-11-15 19:50,50.6304466666667,-96.98078,11.0,13.5,124,999.40,-7.3,59,1.00,0.0,1028.47,0.0
2019-11-15 20:00,50.63045,-96.980775,11.2,14.0,130,999.21,-7.5,59,1.01,0.0,1028.29,0.0
2019-11-15 20:10,50.6304183333333,-96.98078,10.6,13.4,134,999.06,-7.6,57,1.02,0.0,1028.11,0.0
2019-11-15 20:20,50.6304433333333,-96.98077,9.9,12.6,142,998.97,-7.8,56,1.03,0.0,1028.04,0.0
2019-11-15 20:30,50.6304383333333,-96.9807766666667,9.5,11.7,139,998.74,-7.7,57,1.03,0.0,1027.79,0.0
2019-11-15 20:40,50.6304366666667,-96.9807733333333,10.1,13.4,144,998.55,-7.8,56,1.03,0.0,1027.59,0.0
2019-11-15 20:50,50.63046,-96.9807516666667,10.2,13.1,132,998.35,-7.2,57,1.04,0.0,1027.35,0.0
2019-11-15 21:00,50.6304483333333,-96.9807566666667,10.3,13.7,133,998.16,-7.1,57,1.04,0.0,1027.14,90.0
2019-11-15 21:10,50.6304466666667,-96.98076,11.2,14.9,136,998.09,-7.0,57,1.04,0.0,1027.06,90.0
2019-11-15 21:20,50.6304466666667,-96.9807616666667,11.1,14.2,129,998.04,-6.6,57,1.04,0.0,1026.98,90.0
2019-11-15 21:30,50.630455,-96.9807716666667,12.0,15.4,126,997.91,-6.3,57,1.05,0.0,1026.80,90.0
2019-11-15 21:40,50.6304516666667,-96.98077,11.3,15.1,131,997.90,-6.3,58,1.05,0.0,1026.77,90.0
2019-11-15 21:50,50.6304483333333,-96.9807733333333,11.4,15.0,114,997.90,-6.0,61,1.05,0.0,1026.77,90.0
2019-11-15 22:00,50.6304466666667,-96.9807716666667,12.0,15.3,128,997.80,-5.9,59,1.05,0.0,1026.66,270.0
2019-11-15 22:10,50.630445,-96.9807733333333,11.5,15.3,132,997.64,-5.9,59,1.06,0.0,1026.52,270.0
2019-11-15 22:20,50.630445,-96.980775,11.8,17.2,131,997.45,-5.9,60,1.06,0.0,1026.31,270.0
2019-11-15 22:30,50.630445,-96.9807733333333,13.5,16.5,125,997.22,-5.5,61,1.07,0.0,1026.06,270.0
2019-11-15 22:40,50.630445,-96.9807733333333,14.5,16.6,121,997.07,-5.4,61,1.07,0.0,1025.87,270.0
2019-11-15 22:50,50.6304466666667,-96.9807733333333,15.2,17.3,123,996.84,-5.3,61,1.08,0.0,1025.62,270.0
2019-11-15 23:00,50.6304466666667,-96.9807733333333,15.7,17.6,120,996.70,-5.3,60,1.08,0.0,1025.46,360.0
2019-11-15 23:10,50.6304483333333,-96.9807733333333,14.8,17.7,114,996.53,-5.3,64,1.08,0.0,1025.27,360.0
2019-11-15 23:20,50.6304483333333,-96.9807733333333,15.4,17.7,108,996.37,-5.4,66,1.09,0.0,1025.09,360.0
2019-11-15 23:30,50.6304483333333,-96.9807733333333,16.0,18.9,110,996.14,-5.4,66,1.09,0.0,1024.85,360.0
2019-11-15 23:40,50.63045,-96.9807733333333,16.6,19.0,111,995.99,-5.3,65,1.09,0.0,1024.68,360.0
